Location: Austin
(30.3000°N, 97.7500°W)
Time: 06:47:34
(UTC-05:00)

SL-16 R/B - Pass Details

Date: 16 June 2025
Orbit: 985 x 1006 km, 99.7° (Epoch: 07 July)

Event Time Altitude Azimuth Distance (km) Brightness Sun altitude
Rises 04:23:01 0° 147° (SSE) 3,687 5.4 -22.4°
Reaches altitude 10° 04:25:35 10° 141° (SE) 2,743 4.8 -22.0°
Maximum altitude 04:31:24 45° 71° (ENE) 1,322 3.6 -21.2°
Drops below altitude 10° 04:37:15 10° 0° (N) 2,769 5.5 -20.3°
Sets 04:39:50 0° 355° (N) 3,724 6.1 -19.9°
